GPS BIIR-08 1 27663U 03005A 26195.12046580 .00000068 00000+0 00000+0 0 9993 2 27663 54.8791 213.8987 0148252 53.1664 13.5387 2.00559061171852 GPS BIIR-11 1 28190U 04009A 26194.32136603 -.00000006 00000+0 00000+0 0 9994 2 28190 54.8081 274.6303 0117123 174.2593 188.0486 2.00553732163472 GPS BIIR-13 1 28474U 04045A 26194.74015980 -.00000089 00000+0 00000+0 0 9990 2 28474 55.1191 323.8269 0170156 317.0234 52.7354 2.00556949158967 GPS BIIR-14M 1 28874U 05038A 26194.52586235 -.00000001 00000+0 00000+0 0 9993 2 28874 54.8568 272.1134 0128193 296.3964 243.2021 2.00563779152360 METEOSAT-9 (MSG-2) 1 28912U 05049B 26194.71255669 .00000113 00000+0 00000+0 0 9996 2 28912 9.4193 53.9017 0002102 356.2419 183.6226 1.00271253 7264 GPS BIIR-16M 1 29601U 06052A 26194.34506575 .00000080 00000+0 00000+0 0 9994 2 29601 54.9324 212.9693 0084772 90.9951 270.0318 2.00559540143931 GPS BIIR-17M 1 32260U 07047A 26194.15209012 -.00000037 00000+0 00000+0 0 9992 2 32260 54.1142 78.9955 0167712 87.9420 274.0302 2.00553960137334 GPS BIIR-18M 1 32384U 07062A 26194.44170877 -.00000002 00000+0 00000+0 0 9996 2 32384 55.0109 273.0962 0036045 167.3754 169.6583 2.00561466136033 GOES 14 1 35491U 09033A 26194.87106412 -.00000364 00000+0 00000+0 0 9990 2 35491 1.7562 82.7087 0001875 40.5773 247.9351 1.00098692 6859 GOES 15 1 36411U 10008A 26195.14384171 .00000015 00000+0 00000+0 0 9990 2 36411 1.3495 82.4739 0005206 54.1006 270.5419 1.00268319 59902 GSAT0101 (GALILEO-PFM) 1 37846U 11060A 26194.24470205 -.00000093 00000+0 00000+0 0 9993 2 37846 56.9850 341.0553 0002286 61.5340 298.4760 1.70475537 91567 GSAT0102 (GALILEO-FM2) 1 37847U 11060B 26193.00368770 -.00000088 00000+0 00000+0 0 9994 2 37847 56.9863 341.0894 0002305 10.3981 353.6194 1.70475812 91555 LUCH 5A 1 37951U 11074B 26194.60146001 -.00000061 00000+0 00000+0 0 9994 2 37951 8.8185 73.4181 0002571 60.0568 181.5058 1.00272911 53314 METEOSAT-10 (MSG-3) 1 38552U 12035B 26194.91744978 -.00000016 00000+0 00000+0 0 9991 2 38552 4.7328 60.8864 0001105 16.8422 184.3905 1.00270523 51120 SARSAT 13 (METOP-B) 1 38771U 12049A 26195.14932161 .00000053 00000+0 44067-4 0 9994 2 38771 98.6491 246.1087 0001075 261.8835 98.2221 14.21446205717096 GPS BIIF-3 1 38833U 12053A 26194.24160664 .00000002 00000+0 00000+0 0 9997 2 38833 53.5894 142.5319 0181886 66.1866 295.6647 2.00567855 99961 GSAT0103 (GALILEO-FM3) 1 38857U 12055A 26194.28553299 -.00000030 00000+0 00000+0 0 9991 2 38857 55.8215 100.8292 0003756 311.8113 48.1723 1.70473329 85453 GPS BIIF-4 1 39166U 13023A 26195.10646819 .00000005 00000+0 00000+0 0 9995 2 39166 54.4836 267.8759 0141390 51.1115 310.2198 2.00563299 96424 INSAT-3D 1 39216U 13038B 26194.87184412 -.00000346 00000+0 00000+0 0 9995 2 39216 1.9926 82.2017 0000507 85.6144 207.2989 1.00269044 47341 GPS BIIF-5 1 39533U 14008A 26194.60968809 .00000008 00000+0 00000+0 0 9990 2 39533 53.6576 148.2420 0084110 231.5392 127.6616 2.00561430 90219 LUCH 5V 1 39727U 14023A 26195.07879356 -.00000279 00000+0 00000+0 0 9993 2 39727 5.1961 69.4563 0002079 83.7728 261.7922 1.00274112 44621 GPS BIIF-6 1 39741U 14026A 26194.38712161 -.00000091 00000+0 00000+0 0 9997 2 39741 56.4842 330.4979 0038129 325.8384 33.9109 2.00558977 89067 GPS BIIF-7 1 40105U 14045A 26192.98308264 -.00000037 00000+0 00000+0 0 9993 2 40105 55.3689 87.4770 0034302 118.3497 242.0334 2.00560003 86576 GSAT0201 (GALILEO 5) 1 40128U 14050A 26193.74924645 -.00000015 00000+0 00000+0 0 9992 2 40128 48.8466 272.3871 1678293 180.4210 179.4845 1.85519397 78792 GSAT0202 (GALILEO 6) 1 40129U 14050B 26194.54367933 -.00000015 00000+0 00000+0 0 9993 2 40129 48.8636 271.4401 1679516 181.1312 178.5019 1.85520462 80972 GPS BIIF-8 1 40294U 14068A 26194.84566858 -.00000059 00000+0 00000+0 0 9993 2 40294 57.0059 29.9286 0067407 72.2432 288.5439 2.00553095 85749 GLONASS-K 2 1 40315U 14075A 26193.17141326 .00000094 00000+0 00000+0 0 9997 2 40315 63.6181 189.5071 0022686 212.6526 147.2271 2.13101266 90385 GPS BIIF-9 1 40534U 15013A 26194.98718970 .00000063 00000+0 00000+0 0 9994 2 40534 53.1661 203.0691 0110305 40.3694 320.4736 2.00549700 82368 GSAT0203 (GALILEO 7) 1 40544U 15017A 26194.60901044 -.00000095 00000+0 00000+0 0 9990 2 40544 56.7775 340.8763 0002599 256.4303 103.5271 1.70476127 69655 GSAT0204 (GALILEO 8) 1 40545U 15017B 26194.86487459 -.00000096 00000+0 00000+0 0 9999 2 40545 56.7839 340.8880 0002751 234.6933 125.2670 1.70475628 32709 GPS BIIF-10 1 40730U 15033A 26194.14813945 .00000012 00000+0 00000+0 0 9994 2 40730 53.9627 266.0151 0115320 30.2906 330.4504 2.00554905 80514 METEOSAT-11 (MSG-4) 1 40732U 15034A 26195.13318168 .00000053 00000+0 00000+0 0 9999 2 40732 3.2665 70.9401 0002198 353.9910 284.2617 1.00271529 7487 GSAT0206 (GALILEO 10) 1 40890U 15045B 26191.33403541 .00000090 00000+0 00000+0 0 9995 2 40890 54.9400 220.9648 0002065 329.8405 30.2271 1.70473539 67434 GPS BIIF-11 1 41019U 15062A 26194.20306862 -.00000056 00000+0 00000+0 0 9998 2 41019 56.9770 29.8096 0112774 230.8892 128.1524 2.00566902 78355 ELEKTRO-L 2 1 41105U 15074A 26194.99508521 -.00000128 00000+0 00000+0 0 9999 2 41105 6.7582 70.1887 0000974 214.5456 350.8546 1.00272120 38770 GSAT0209 (GALILEO 12) 1 41174U 15079A 26193.84863323 -.00000031 00000+0 00000+0 0 9990 2 41174 55.8417 100.5578 0004913 351.6922 8.3136 1.70473633 65219 GSAT0208 (GALILEO 11) 1 41175U 15079B 26194.06902902 -.00000030 00000+0 00000+0 0 9992 2 41175 55.8391 100.5488 0004537 14.0255 346.0022 1.70473434 65633 GPS BIIF-12 1 41328U 16007A 26194.29449025 -.00000032 00000+0 00000+0 0 9993 2 41328 55.5398 88.4243 0096616 247.6192 111.3962 2.00575425 76368 GSAT0211 (GALILEO 14) 1 41549U 16030A 26194.19266485 .00000077 00000+0 00000+0 0 9998 2 41549 55.0900 220.9791 0003358 318.4199 41.6297 1.70473671 63114 GSAT0210 (GALILEO 13) 1 41550U 16030B 26194.44991027 .00000075 00000+0 00000+0 0 9993 2 41550 55.0890 220.9702 0004705 245.6876 114.3369 1.70473836 63117 INSAT-3DR 1 41752U 16054A 26195.14583507 -.00000083 00000+0 00000+0 0 9991 2 41752 0.0672 88.6741 0010618 181.2851 148.5520 1.00270620 36082 GSAT0207 (GALILEO 15) 1 41859U 16069A 26192.96868882 -.00000030 00000+0 00000+0 0 9996 2 41859 55.5126 100.4004 0004522 339.9754 20.0172 1.70473524 59824 GSAT0212 (GALILEO 16) 1 41860U 16069B 26193.99526782 -.00000031 00000+0 00000+0 0 9993 2 41860 55.5113 100.3671 0004362 10.9612 349.0630 1.70473652 60098 GSAT0213 (GALILEO 17) 1 41861U 16069C 26194.36243565 -.00000031 00000+0 00000+0 0 9991 2 41861 55.5134 100.3648 0004126 318.6741 41.3115 1.70474037 59967 GSAT0214 (GALILEO 18) 1 41862U 16069D 26193.92212601 -.00000031 00000+0 00000+0 0 9990 2 41862 55.5118 100.3696 0003294 332.9460 27.0511 1.70473654 60085 GOES 16 1 41866U 16071A 26195.11058086 -.00000097 00000+0 00000+0 0 9997 2 41866 0.4011 85.4810 0000525 98.2592 43.3529 1.00270907 35376 GSAT-17 1 42815U 17040B 26195.14982176 -.00000264 00000+0 00000+0 0 9994 2 42815 0.0696 88.3690 0002253 168.3216 182.7524 1.00270801 33055 GSAT0215 (GALILEO 19) 1 43055U 17079A 26192.06539411 .00000090 00000+0 00000+0 0 9997 2 43055 55.0682 220.8492 0003697 267.9007 92.1373 1.70474334 53396 GSAT0216 (GALILEO 20) 1 43056U 17079B 26194.70284229 .00000073 00000+0 00000+0 0 9996 2 43056 55.0682 220.7766 0004872 277.2094 82.8068 1.70474451 53450 GSAT0217 (GALILEO 21) 1 43057U 17079C 26194.33707142 .00000076 00000+0 00000+0 0 9993 2 43057 55.0666 220.7845 0005106 288.0237 71.9947 1.70474139 53437 GSAT0218 (GALILEO 22) 1 43058U 17079D 26192.79741165 .00000087 00000+0 00000+0 0 9997 2 43058 55.0670 220.8245 0005348 274.4620 85.5568 1.70474392 53432 GOES 17 1 43226U 18022A 26195.11361419 -.00000190 00000+0 00000+0 0 9998 2 43226 1.0039 85.2736 0000538 83.4541 74.6594 1.00271204 30694 GSAT0221 (GALILEO 25) 1 43564U 18060A 26194.46121759 -.00000094 00000+0 00000+0 0 9996 2 43564 57.1602 341.0717 0002646 286.2656 73.6918 1.70476034 49617 GSAT0222 (GALILEO 26) 1 43565U 18060B 26192.92116441 -.00000087 00000+0 00000+0 0 9990 2 43565 57.1642 341.1170 0002730 235.5377 124.4270 1.70475789 49631 GSAT0219 (GALILEO 23) 1 43566U 18060C 26194.31518514 -.00000093 00000+0 00000+0 0 9990 2 43566 57.1630 341.0808 0001811 299.7576 60.2111 1.70476015 49632 GSAT0220 (GALILEO 24) 1 43567U 18060D 26194.53619194 -.00000094 00000+0 00000+0 0 9992 2 43567 57.1625 341.0748 0002129 291.2422 68.7213 1.70475652 49621 BEIDOU-3 M13 1 43622U 18072A 26194.84670723 -.00000039 00000+0 00000+0 0 9995 2 43622 56.6475 61.7808 0006236 333.7731 26.2691 1.86231187 53153 BEIDOU-3 M14 1 43623U 18072B 26194.71213374 -.00000039 00000+0 00000+0 0 9997 2 43623 56.6494 61.7795 0005535 10.9871 349.0986 1.86231255 53148 GPS BIII-1 1 43873U 18109A 26195.17814383 -.00000026 00000+0 00000+0 0 9999 2 43873 55.6979 91.1216 0038543 197.1834 335.2842 2.00562670 55616 METEOR-M2 2 1 44387U 19038A 26195.14888375 .00000254 00000+0 12980-3 0 9997 2 44387 98.9152 182.8340 0000808 6.1083 354.0105 14.24373615365134 GPS BIII-2 1 44506U 19056A 26194.52259712 -.00000092 00000+0 00000+0 0 9995 2 44506 55.6228 330.0964 0063366 198.1416 125.2994 2.00569859 50593 BEIDOU-3 M24 1 44542U 19061A 26195.09011616 .00000051 00000+0 00000+0 0 9997 2 44542 54.3974 181.8206 0008605 359.4384 0.5411 1.86229166 46297 BEIDOU-3 M23 1 44543U 19061B 26194.41507322 .00000060 00000+0 00000+0 0 9997 2 44543 54.3959 181.8118 0005907 339.8983 198.9299 1.86227321 46288 BEIDOU-3 M22 1 44793U 19078A 26194.39343167 -.00000062 00000+0 00000+0 0 9997 2 44793 53.9106 298.9058 0005750 50.3045 309.7753 1.86227300 45134 BEIDOU-3 M21 1 44794U 19078B 26193.45936353 -.00000062 00000+0 00000+0 0 9999 2 44794 53.8852 298.8992 0003702 52.5088 307.5509 1.86227618 45120 ELEKTRO-L 3 1 44903U 19095A 26195.03288838 -.00000102 00000+0 00000+0 0 9999 2 44903 0.3229 82.1013 0001114 20.0512 277.5742 1.00271062 23974 GPS BIII-3 1 45854U 20041A 26194.89992062 -.00000062 00000+0 00000+0 0 9997 2 45854 56.6877 27.9078 0065107 204.6623 328.4566 2.00557726 44570 COSMOS 2547 1 46805U 20075A 26195.16188681 .00000067 00000+0 00000+0 0 9990 2 46805 64.6014 191.5752 0009459 239.9712 119.9459 2.13099927 44486 GPS BIII-4 1 46826U 20078A 26194.42910463 .00000076 00000+0 00000+0 0 9995 2 46826 53.9775 209.7142 0074514 207.7703 322.6642 2.00564873 42035 GSAT0223 (GALILEO 27) 1 49809U 21116A 26193.80162081 -.00000091 00000+0 00000+0 0 9997 2 49809 57.1512 340.9841 0002430 195.8611 164.1379 1.70475864 28612 GSAT0224 (GALILEO 28) 1 49810U 21116B 26194.50046551 -.00000094 00000+0 00000+0 0 9993 2 49810 57.1519 340.9637 0001862 181.9105 359.6169 1.70475939 28651 GOES 18 1 51850U 22021A 26195.21236742 .00000090 00000+0 00000+0 0 9993 2 51850 0.0184 128.1604 0000394 61.7884 41.5771 1.00270525 6863 COSMOS 2557 (706K) 1 52984U 22075A 26194.38749594 -.00000064 00000+0 00000+0 0 9994 2 52984 64.2818 313.5628 0010790 271.6938 88.1892 2.13102257 31272 METEOSAT-12 (MTG-I1) 1 54743U 22170C 26195.13127500 -.00000015 00000+0 00000+0 0 9992 2 54743 0.7239 19.5033 0003778 82.3169 237.1294 1.00267426 13247 METEOR-M2 3 1 57166U 23091A 26195.21969466 -.00000007 00000+0 15816-4 0 9998 2 57166 98.6069 249.6429 0005148 92.4683 267.7086 14.24048872158360 COSMOS 2569 (703K) 1 57517U 23114A 26194.06264716 -.00000012 00000+0 00000+0 0 9992 2 57517 65.3169 71.7482 0009746 296.0877 63.8841 2.13103705 22816 METEOR-M2 4 1 59051U 24039A 26195.19474395 -.00000018 00000+0 11790-4 0 9994 2 59051 98.7025 154.1554 0008251 91.2500 268.9623 14.22432080123100 GSAT0225 (GALILEO 29) 1 59598U 24079A 26193.92364229 -.00000032 00000+0 00000+0 0 9990 2 59598 55.1342 100.3610 0000576 333.1665 207.5558 1.70473595 13753 GSAT0227 (GALILEO 30) 1 59600U 24079C 26194.98582021 -.00000030 00000+0 00000+0 0 9991 2 59600 55.1303 100.3294 0002845 67.2681 292.7822 1.70473814 13828 GSAT0232 (GALILEO 32) 1 61182U 24167A 26194.16550859 .00000078 00000+0 00000+0 0 9992 2 61182 55.1798 220.6008 0006491 230.8741 201.3532 1.70473982 11322 GSAT0226 (GALILEO 31) 1 61183U 24167B 26193.31376557 .00000085 00000+0 00000+0 0 9998 2 61183 55.1789 220.6314 0003219 234.7446 126.0816 1.70473923 11281 GSAT0233 (GALILEO 33) 1 67160U 25302A 26195.03920553 -.00000031 00000+0 00000+0 0 9995 2 67160 54.3495 101.3657 0000880 156.8538 279.4262 1.70473741 3589 GSAT0234 (GALILEO 34) 1 67162U 25302C 26192.55778705 -.00000030 00000+0 00000+0 0 9990 2 67162 54.3508 101.4360 0002156 317.4765 216.0018 1.70473738 3596